DateTimeUTC,F1_A11,F1_S11,BsB_S11,BsG_S11,BsR_S11,BbsB_S11,BbsG_S11,BbsR_S11,BaB_A11,BaG_A11,BaR_A11,Tu_S11,T_S11,Uu_S11,U_S11,P_S11,T1_A11
2021-05-29T01:00:00Z,00000200,20000000,,,,,,,-000.19,-000.08,-000.27,17.5,24.4,05.8,03.8,0673.8,30.8
2021-05-29T01:01:00Z,00000200,20000000,,,,,,,0000.39,0000.02,-000.00,17.5,24.4,05.7,03.7,0673.8,30.8
2021-05-29T01:02:00Z,00000200,20000000,,,,,,,-000.22,0000.06,-000.14,17.5,24.4,05.7,03.7,0673.8,30.8
2021-05-29T01:03:00Z,00000200,60000000,,,,,,,0000.23,0000.38,0000.56,17.5,24.5,05.7,03.7,0673.8,30.8
2021-05-29T01:04:00Z,00000200,40000000,0001.09,0001.03,0000.96,0000.30,0000.63,0000.08,0000.78,0000.56,0000.32,17.6,24.3,05.5,03.7,0674.7,30.8
2021-05-29T01:05:00Z,00000200,00000000,0001.98,0001.42,0000.99,0000.24,0000.50,0000.03,0001.06,0000.68,0000.43,17.6,24.2,05.4,03.6,0674.8,30.8
2021-05-29T01:06:00Z,00000200,00000000,0001.86,0001.50,0000.98,0000.19,0000.31,0000.30,0000.79,0000.91,0000.74,17.7,24.2,05.4,03.6,0674.8,30.8
2021-05-29T01:07:00Z,00000200,00000000,0002.11,0001.09,0000.81,0000.18,0000.32,-000.04,0000.43,0000.47,0000.43,17.7,24.2,05.3,03.5,0674.8,30.8
2021-05-29T01:08:00Z,00000200,00000000,0001.86,0001.17,0001.07,-000.24,-000.01,-000.01,0000.82,0000.41,0000.14,17.6,24.2,05.3,03.5,0674.8,30.8
2021-05-29T01:09:00Z,00000200,00000000,0001.85,0001.25,0001.08,0000.34,0000.07,0000.18,0000.36,0000.57,0000.50,17.6,24.2,05.3,03.6,0674.8,30.8
2021-05-29T01:10:00Z,00000200,00000000,0001.97,0001.26,0000.99,-000.20,0000.34,-000.22,0000.72,0000.92,0000.53,17.6,24.1,05.3,03.5,0674.8,30.8
2021-05-29T01:11:00Z,00000200,00000000,0002.07,0001.21,0000.58,-000.05,0000.28,0000.02,0000.77,0000.44,0000.61,17.6,24.1,05.2,03.5,0674.8,30.8
2021-05-29T01:12:00Z,00000200,00000000,0002.30,0001.38,0000.79,0000.41,0000.27,0000.21,0000.15,0000.55,0000.44,17.6,24.1,05.1,03.4,0674.8,30.8
2021-05-29T01:13:00Z,00000200,00000000,0002.48,0001.00,0001.19,0000.03,0000.43,0000.35,0001.00,0000.60,0000.30,17.6,24.1,05.1,03.4,0674.8,30.8
2021-05-29T01:14:00Z,00000200,00000000,0001.95,0001.04,0000.63,0000.04,0000.09,0000.02,0000.68,0000.47,0000.58,17.6,24.1,05.1,03.4,0674.8,30.8
2021-05-29T01:15:00Z,00000200,00000000,0002.30,0001.24,0001.01,0000.54,0000.25,0000.04,0000.46,0000.52,0000.12,17.6,24.1,05.0,03.3,0674.8,30.8
2021-05-29T01:16:00Z,00000200,00000000,0001.62,0000.93,0000.76,0000.16,0000.54,0000.05,0000.71,0000.62,0000.53,17.6,24.1,05.0,03.3,0674.8,30.8
2021-05-29T01:17:00Z,00000200,00000000,0002.44,0001.27,0000.72,0000.10,0000.36,0000.08,0000.76,0000.81,0000.55,17.6,24.1,04.9,03.2,0674.8,30.8
2021-05-29T01:18:00Z,00000200,00000000,0002.11,0001.28,0000.65,-000.14,-000.11,0000.04,0000.62,0000.59,0000.54,17.6,24.1,04.9,03.3,0674.8,30.8
2021-05-29T01:19:00Z,00000200,00000000,0001.27,0001.07,0000.87,0000.11,0000.27,0000.25,0000.65,0000.37,0000.55,17.6,24.1,04.9,03.3,0674.8,30.8
2021-05-29T01:20:00Z,00000200,00000000,0000.86,0001.06,0001.16,0000.11,0000.37,0000.08,0000.59,0000.62,0000.02,17.6,24.1,04.9,03.3,0674.9,30.8
2021-05-29T01:21:00Z,00000200,00000000,0001.71,0001.18,0000.93,0000.10,0000.35,0000.38,0000.95,0000.57,0000.87,17.6,24.1,04.8,03.2,0674.9,30.8
2021-05-29T01:22:00Z,00000200,00000000,0001.82,0001.22,0000.99,0000.29,0000.18,0000.28,0000.57,0000.79,0000.70,17.6,24.1,04.8,03.2,0674.8,30.8
2021-05-29T01:23:00Z,00000200,00000000,0001.90,0001.31,0000.93,-000.28,0000.54,-000.06,-000.18,-000.33,-000.56,17.6,24.1,04.9,03.3,0674.8,30.8
2021-05-29T01:24:00Z,00000200,00000000,0001.39,0001.02,0001.10,-000.00,0000.37,0000.05,0000.29,0000.28,0000.31,17.6,24.0,04.8,03.2,0674.8,30.8
2021-05-29T01:25:00Z,00000200,00000000,0002.23,0001.24,0000.97,-000.05,0000.39,0000.11,0000.97,0000.58,0000.37,17.5,24.1,04.8,03.2,0674.8,30.8
2021-05-29T01:26:00Z,00000200,00000000,0001.70,0001.01,0000.77,0000.22,0000.47,-000.03,0000.56,0000.78,0000.43,17.5,24.1,04.8,03.2,0674.8,30.8
2021-05-29T01:27:00Z,00000200,00000000,0001.87,0001.30,0000.90,0000.51,0000.54,0000.04,0000.71,0000.42,0000.40,17.5,24.0,04.7,03.1,0674.8,30.8
2021-05-29T01:28:00Z,00000200,00000000,0001.67,0001.11,0000.92,0000.20,0000.30,-000.02,0000.59,0000.66,0000.43,17.5,24.0,04.6,03.1,0674.8,30.8
2021-05-29T01:29:00Z,00000200,00000000,0002.28,0000.97,0000.64,0000.53,0000.49,-000.17,0000.86,0000.72,0000.76,17.5,24.0,04.6,03.1,0674.8,30.8
2021-05-29T01:30:00Z,00000200,00000000,0002.44,0000.97,0000.81,0000.12,0000.29,-000.06,0000.53,0000.80,0000.20,17.5,24.0,04.7,03.1,0674.8,30.8
2021-05-29T01:31:00Z,00000200,00000000,0001.97,0001.01,0001.17,0000.18,0000.40,-000.00,0000.77,0000.74,0000.78,17.5,24.0,04.5,03.0,0674.7,30.8
2021-05-29T01:32:00Z,00000200,00000000,0001.91,0000.81,0000.49,-000.15,0000.02,-000.06,0000.73,0000.51,0000.48,17.5,24.0,04.6,03.0,0674.7,30.8
2021-05-29T01:33:00Z,00000200,00000000,0002.08,0001.14,0000.85,0000.31,0000.16,0000.13,0000.62,0000.73,0000.38,17.5,24.0,04.6,03.1,0674.7,30.8
2021-05-29T01:34:00Z,00000200,00000000,0002.51,0001.24,0001.01,0000.61,0000.48,0000.06,0000.52,0000.50,0000.68,17.5,24.0,04.6,03.1,0674.7,30.8
2021-05-29T01:35:00Z,00000200,00000000,0001.97,0001.35,0000.85,0000.65,0000.32,0000.22,0000.82,0000.71,0000.21,17.5,24.0,04.7,03.1,0674.6,30.8
2021-05-29T01:36:00Z,00000200,00000000,0001.62,0001.17,0000.98,-000.08,0000.13,-000.12,0000.65,0000.59,0000.43,17.5,24.0,04.6,03.1,0674.6,30.8
2021-05-29T01:37:00Z,00000200,00000000,0001.90,0000.93,0000.77,-000.14,0000.30,0000.32,0000.78,0000.63,0000.75,17.5,24.0,04.6,03.1,0674.6,30.8
2021-05-29T01:38:00Z,00000200,00000000,0001.86,0001.39,0000.77,0000.47,-000.03,0000.22,0000.50,0000.27,0000.27,17.5,24.0,04.6,03.1,0674.6,30.8
2021-05-29T01:39:00Z,00000200,00000000,0002.17,0001.09,0000.63,-000.18,0000.16,0000.16,0000.53,0000.65,0000.55,17.4,24.0,04.6,03.1,0674.6,30.8
2021-05-29T01:40:00Z,00000200,00000000,0002.19,0001.15,0000.90,-000.33,0000.23,0000.20,0000.74,0000.69,0000.62,17.5,24.0,04.5,03.0,0674.6,30.8
2021-05-29T01:41:00Z,00000200,00000000,0001.40,0001.36,0000.88,0000.28,0000.20,0000.02,0000.87,0000.63,0000.42,17.4,24.0,04.7,03.1,0674.6,30.8
2021-05-29T01:42:00Z,00000200,00000000,0001.49,0001.12,0000.65,0000.44,0000.19,0000.04,0000.49,0000.39,0000.49,17.4,24.0,04.6,03.1,0674.6,30.8
2021-05-29T01:43:00Z,00000200,00000000,0002.27,0001.26,0000.78,-000.45,0000.39,-000.01,0000.73,0000.65,0000.03,17.4,23.9,04.6,03.1,0674.6,30.8
2021-05-29T01:44:00Z,00000200,00000000,0002.21,0001.23,0001.03,0000.48,0000.28,-000.13,0000.43,0000.34,0000.75,17.4,23.9,04.6,03.1,0674.6,30.8
2021-05-29T01:45:00Z,00000200,00000000,0001.96,0000.84,0000.76,0000.07,0000.28,-000.04,0000.99,0001.14,0000.57,17.4,24.0,04.5,03.0,0674.6,30.8
2021-05-29T01:46:00Z,00000200,00000000,0001.62,0001.04,0000.88,0000.37,0000.28,0000.11,0000.60,0000.41,0000.40,17.4,23.9,04.6,03.1,0674.6,30.8
2021-05-29T01:47:00Z,00000200,00000000,0001.45,0001.08,0000.89,0000.17,0000.18,0000.12,0000.57,0000.72,0000.56,17.4,23.9,04.5,03.0,0674.6,30.8
2021-05-29T01:48:00Z,00000200,00000000,0001.98,0001.34,0000.99,-000.08,0000.44,0000.20,0000.52,0000.66,0000.43,17.4,23.9,04.3,02.9,0674.6,30.8
2021-05-29T01:49:00Z,00000200,00000000,0001.18,0001.33,0000.96,0000.30,0000.29,0000.13,0000.71,0000.34,0000.39,17.4,23.9,04.4,02.9,0674.6,30.8
2021-05-29T01:50:00Z,00000200,00000000,0001.47,0001.36,0000.53,0000.34,0000.28,0000.24,0000.61,0000.68,0000.58,17.4,23.9,04.4,02.9,0674.6,30.8
2021-05-29T01:51:00Z,00000200,00000000,0002.40,0001.25,0000.95,0000.29,0000.27,0000.09,0000.71,0000.67,0000.29,17.4,23.9,04.4,02.9,0674.6,30.8
2021-05-29T01:52:00Z,00000200,00000000,0001.76,0001.29,0000.78,0000.24,0000.46,-000.05,0000.57,0000.74,0000.36,17.4,23.9,04.4,03.0,0674.6,30.8
2021-05-29T01:53:00Z,00000200,00000000,0001.77,0001.08,0000.74,0000.28,0000.39,-000.00,0000.66,0000.47,0000.36,17.4,23.9,04.3,02.9,0674.6,30.8
2021-05-29T01:54:00Z,00000200,00000000,0001.28,0001.47,0000.89,-000.26,0000.26,0000.18,0000.87,0000.55,0000.60,17.4,23.9,04.3,02.9,0674.6,30.8
2021-05-29T01:55:00Z,00000200,00000000,0001.96,0001.44,0000.74,-000.03,0000.32,0000.10,0000.52,0000.66,0000.15,17.3,23.9,04.2,02.8,0674.6,30.8
2021-05-29T01:56:00Z,00000200,00000000,0001.48,0001.02,0000.58,0000.43,0000.27,-000.28,0000.26,0000.43,0000.84,17.3,23.9,04.1,02.8,0674.6,30.8
2021-05-29T01:57:00Z,00000200,40000000,,,,,,,0000.83,0000.51,0000.29,17.4,23.9,04.2,02.8,0674.6,30.8
2021-05-29T01:58:00Z,00000200,60000000,,,,,,,-000.31,-000.20,-000.31,17.1,24.0,04.3,02.8,0673.6,30.8
2021-05-29T01:59:00Z,00000200,20000000,,,,,,,0000.11,-000.15,-000.12,17.1,24.1,04.3,02.8,0673.5,30.8
